Regional Weather Roundup
Issued by NWS

Home | Current Version | Previous Version | Graphics & Text | Print | Product List | Glossary On
Versions: 1 2 3 4 5 6 7 8 9 10 11 12 13 14 15 16 17 18 19 20 21 22 23 24 25 26 27 28 29 30 31 32 33 34 35 36 37 38 39 40 41 42 43 44 45 46 47 48 49 50
093
ASUS44 KLIX 222101
RWRLA
LOUISIANA WEATHER ROUNDUP
NATIONAL WEATHER SERVICE NEW ORLEANS LA
400 PM CDT TUE APR 22 2014

NOTE: "FAIR" INDICATES FEW OR NO CLOUDS BELOW 12,000 FEET WITH NO
      SIGNIFICANT WEATHER AND/OR OBSTRUCTIONS TO VISIBILITY.
      SKY/WX - SKY CONDITION AND SIGNIFICANT WEATHER.
      TMP - AIR TEMPERATURE.    DP   - DEWPOINT TEMPERATURE.
      RH  - RELATIVE HUMIDITY.  PRES - PRESSURE.
      HX  - HEAT INDEX.         WCI  - WIND CHILL INDEX.

*  THESE STATIONS ARE NOT NWS OR FAA STATIONS AND ARE NOT UNDER
   NWS QUALITY CONTROL.

LAZ040-048-061>063-065-066-069-222200-
SOUTHEAST LOUISIANA

CITY           SKY/WX    TMP DP  RH WIND       PRES   REMARKS
N.O. AUDUBON   NOT AVBL
N.O. INTL ARPT PTSUNNY   76  67  73 SW8       29.90F
N.O. LAKEFRONT MOSUNNY   74  66  76 W10       29.91F
N.O. DOWNTOWN* MOCLDY    75  63  64 W7        29.91F
SLIDELL        PTSUNNY   76  64  66 SW8       29.88F
BATON ROUGE    CLOUDY    77  61  57 N6        29.91F
BOOTHVILLE     CLOUDY    72  66  81 SW14      29.93F
BELLE CHASSE   PTSUNNY   73  66  78 SW6       29.91F
BOGALUSA*        N/A     78  63  60 W7        29.90F
GALLIANO*      NOT AVBL
NEW ROADS*     NOT AVBL
GONZALES*      FAIR      78  62  57 NW8       29.90F
HAMMOND*       NOT AVBL
HOUMA*         PTSUNNY   75  64  69 W12       29.92F
PORT FOURCHON* CLOUDY    73  66  78 W15       29.94F

$$

LAZ041-044-053-054-222200-
SOUTHWEST LOUISIANA

CITY           SKY/WX    TMP DP  RH WIND       PRES   REMARKS
LAKE CHARLES   PTSUNNY   83  60  45 N7        29.91F
LAFAYETTE      MOSUNNY   81  60  48 NW5       29.91F
PATTERSON      PTSUNNY   79  70  73 W14       29.94F
SALT POINT       N/A     76  69  79 SW8       29.92F
NEW IBERIA     MOSUNNY   83  63  50 N10G16    29.91F
CHENAULT AIRPK MOSUNNY   82  57  42 N10G16    29.92F

$$

LAZ027-028-222200-
CENTRAL LOUISIANA

CITY           SKY/WX    TMP DP  RH WIND       PRES   REMARKS
FORT POLK      PTSUNNY   80  58  46 N12       29.93F
ALEXANDRIA INT MOSUNNY   80  61  52 NW7       29.91F
ALEXANDRIA     PTSUNNY   83  59  44 NW8       29.92F

$$

LAZ001-002-222200-
NORTHWEST LOUISIANA

CITY           SKY/WX    TMP DP  RH WIND       PRES   REMARKS
SHREVEPORT     MOSUNNY   81  60  48 CALM      29.93F
BARKSDALE AFB  NOT AVBL
DTN SHREVEPORT MOSUNNY   79  59  50 N5        29.94F

$$

LAZ014-016-222200-
NORTHEAST LOUISIANA

CITY           SKY/WX    TMP DP  RH WIND       PRES   REMARKS
MONROE         MOSUNNY   78  61  55 N7        29.93F
TALLULAH       PTSUNNY   78  62  57 N10       29.92F

$$




USA.gov is the U.S. government's official web portal to all federal, state and local government web resources and services.